When you browse on this site, cookies collect data to enhance your experience and personalize the content and advertising you see.
Visit our Privacy Policy to learn more. By continuing to use the site, you agree to this use of cookies and data.
  • In Hungary
  • List of Countries
  • For 7 days
  • Water Temperature
  • Weather Map
  • News
  • Weather Widgets
  • user-avatar
    Login

    Hourly Weather Kaplivka

    Today, 7 December, Saturday

    Time Temperature Precipitation Wind Pressure Humidity
    00:00 -1°C° 0 mm 0 mps 743 mmHg 66%
    01:00 -1°C° 0 mm 0 mps 743 mmHg 66%
    02:00 -1°C° 0 mm 0 mps 743 mmHg 68%
    03:00 -1°C° 0 mm 0 mps 743 mmHg 68%
    04:00 -2°C° 0 mm 0 mps 742 mmHg 68%
    05:00 -2°C° 0 mm 0 mps 742 mmHg 68%
    06:00 -2°C° 0 mm 0 mps 742 mmHg 67%
    07:00 -2°C° 0 mm 0 mps 742 mmHg 67%
    08:00 -2°C° 0 mm 0 mps 742 mmHg 65%
    09:00 -1°C° 0 mm 0 mps 742 mmHg 62%
    10:00 0°C° 0 mm 0 mps 741 mmHg 59%
    11:00 +3°C° 0 mm 1 mps 741 mmHg 55%
    12:00 +3°C° 0 mm 1 mps 741 mmHg 57%
    13:00 +4°C° 0 mm 1 mps 741 mmHg 58%
    14:00 +4°C° 0 mm 1 mps 740 mmHg 60%
    15:00 +3°C° 0 mm 1 mps 740 mmHg 63%
    16:00 +2°C° 0 mm 1 mps 740 mmHg 66%
    17:00 +1°C° 0 mm 1 mps 741 mmHg 69%
    18:00 +2°C° 0 mm 1 mps 741 mmHg 70%
    19:00 +2°C° 0 mm 1 mps 741 mmHg 72%
    20:00 +2°C° 0 mm 1 mps 742 mmHg 74%
    21:00 +2°C° 0 mm 1 mps 742 mmHg 75%
    22:00 +2°C° 0 mm 1 mps 742 mmHg 76%
    23:00 +2°C° 0 mm 1 mps 742 mmHg 78%

    Tomorrow, 8 December, Sunday

    Time Temperature Precipitation Wind Pressure Humidity
    00:00 +2°C° 0 mm 2 mps 742 mmHg 78%
    01:00 +2°C° 0 mm 2 mps 742 mmHg 78%
    02:00 +2°C° 0 mm 2 mps 742 mmHg 77%
    03:00 +2°C° 0 mm 2 mps 742 mmHg 79%
    04:00 +2°C° 0 mm 2 mps 742 mmHg 80%
    05:00 +1°C° 0 mm 2 mps 742 mmHg 82%
    06:00 +1°C° 0 mm 2 mps 742 mmHg 82%
    07:00 +2°C° 0 mm 1 mps 742 mmHg 81%
    08:00 +2°C° 0 mm 1 mps 743 mmHg 81%
    09:00 +3°C° 0 mm 1 mps 743 mmHg 78%
    10:00 +4°C° 0 mm 1 mps 743 mmHg 76%
    11:00 +4°C° 0 mm 2 mps 743 mmHg 73%
    12:00 +6°C° 0 mm 1 mps 743 mmHg 72%
    13:00 +6°C° 0 mm 1 mps 743 mmHg 72%
    14:00 +6°C° 0 mm 1 mps 742 mmHg 71%
    15:00 +5°C° 0 mm 1 mps 742 mmHg 74%
    16:00 +3°C° 0 mm 2 mps 742 mmHg 76%
    17:00 +3°C° 0 mm 2 mps 742 mmHg 78%
    18:00 +2°C° 0 mm 2 mps 742 mmHg 79%
    19:00 +2°C° 0 mm 2 mps 742 mmHg 79%
    20:00 +2°C° 0 mm 2 mps 742 mmHg 80%
    21:00 +1°C° 0 mm 3 mps 742 mmHg 80%
    22:00 +1°C° 0 mm 3 mps 741 mmHg 79%
    23:00 +1°C° 0 mm 3 mps 741 mmHg 79%

    Day after tomorrow, 9 December, Monday

    Time Temperature Precipitation Wind Pressure Humidity
    00:00 +1°C° 0 mm 3 mps 741 mmHg 79%
    01:00 +1°C° 0 mm 3 mps 740 mmHg 80%
    02:00 +1°C° 0 mm 3 mps 740 mmHg 80%
    03:00 +1°C° 0 mm 3 mps 739 mmHg 81%
    04:00 +1°C° 0 mm 3 mps 739 mmHg 81%
    05:00 +1°C° 0 mm 3 mps 739 mmHg 82%
    06:00 +1°C° 0 mm 3 mps 739 mmHg 83%
    07:00 +1°C° 0 mm 3 mps 739 mmHg 83%
    08:00 +2°C° 0 mm 2 mps 739 mmHg 84%
    09:00 +3°C° 0 mm 2 mps 739 mmHg 81%
    10:00 +3°C° 0 mm 3 mps 739 mmHg 78%
    11:00 +3°C° 0 mm 3 mps 738 mmHg 76%
    12:00 +4°C° 0 mm 3 mps 738 mmHg 75%
    13:00 +5°C° 0 mm 3 mps 738 mmHg 74%
    14:00 +5°C° 0 mm 3 mps 737 mmHg 73%
    15:00 +4°C° 0 mm 3 mps 737 mmHg 77%
    16:00 +3°C° 0 mm 3 mps 737 mmHg 81%
    17:00 +2°C° 0 mm 3 mps 737 mmHg 85%
    18:00 +2°C° 0 mm 3 mps 737 mmHg 85%
    19:00 +2°C° 0 mm 3 mps 737 mmHg 85%
    20:00 +3°C° 0 mm 2 mps 738 mmHg 85%
    21:00 +3°C° 0 mm 2 mps 738 mmHg 84%
    22:00 +3°C° 0 mm 2 mps 738 mmHg 84%
    23:00 +3°C° 0 mm 2 mps 738 mmHg 83%

    10 December, Tuesday

    Time Temperature Precipitation Wind Pressure Humidity
    00:00 +3°C° 0 mm 2 mps 738 mmHg 83%
    01:00 +3°C° 0 mm 2 mps 738 mmHg 83%
    02:00 +3°C° 0 mm 2 mps 738 mmHg 83%
    03:00 +3°C° 0 mm 2 mps 738 mmHg 84%
    04:00 +3°C° 0 mm 2 mps 738 mmHg 85%
    05:00 +3°C° 0 mm 2 mps 738 mmHg 85%
    06:00 +3°C° 0 mm 1 mps 738 mmHg 86%
    07:00 +3°C° 0 mm 1 mps 739 mmHg 86%
    08:00 +3°C° 0 mm 1 mps 739 mmHg 87%
    09:00 +4°C° 0 mm 1 mps 739 mmHg 84%
    10:00 +5°C° 0 mm 1 mps 740 mmHg 81%
    11:00 +5°C° 0 mm 1 mps 740 mmHg 78%
    12:00 +6°C° 0 mm 1 mps 740 mmHg 76%
    13:00 +6°C° 0 mm 1 mps 740 mmHg 74%
    14:00 +7°C° 0 mm 1 mps 740 mmHg 72%
    15:00 +6°C° 0 mm 1 mps 741 mmHg 76%
    16:00 +6°C° 0 mm 1 mps 741 mmHg 79%
    17:00 +4°C° 0 mm 2 mps 742 mmHg 83%
    18:00 +4°C° 0.1 mm 2 mps 742 mmHg 83%
    19:00 +3°C° 0.1 mm 3 mps 743 mmHg 84%
    20:00 +3°C° 0.1 mm 4 mps 744 mmHg 85%
    21:00 +3°C° 0.3 mm 4 mps 744 mmHg 88%
    22:00 +3°C° 0.3 mm 4 mps 745 mmHg 91%
    23:00 +3°C° 0.3 mm 4 mps 745 mmHg 94%

    11 December, Wednesday

    Time Temperature Precipitation Wind Pressure Humidity
    00:00 +1°C° 0.1 mm 4 mps 745 mmHg 90%
    01:00 +1°C° 0.1 mm 4 mps 745 mmHg 85%
    02:00 +1°C° 0.1 mm 4 mps 746 mmHg 81%
    03:00 +1°C° 0 mm 3 mps 746 mmHg 82%
    04:00 +1°C° 0 mm 3 mps 746 mmHg 83%
    05:00 +2°C° 0 mm 2 mps 746 mmHg 84%
    06:00 +1°C° 0 mm 2 mps 747 mmHg 85%
    07:00 +1°C° 0 mm 2 mps 747 mmHg 86%
    08:00 -1°C° 0 mm 2 mps 747 mmHg 87%
    09:00 +1°C° 0 mm 2 mps 747 mmHg 84%
    10:00 +2°C° 0 mm 2 mps 747 mmHg 80%
    11:00 +3°C° 0 mm 2 mps 748 mmHg 77%
    12:00 +4°C° 0 mm 1 mps 747 mmHg 75%
    13:00 +5°C° 0 mm 1 mps 747 mmHg 73%
    14:00 +4°C° 0 mm 0 mps 747 mmHg 70%
    15:00 +4°C° 0 mm 0 mps 747 mmHg 74%
    16:00 +4°C° 0 mm 1 mps 747 mmHg 77%
    17:00 +3°C° 0 mm 1 mps 747 mmHg 81%
    18:00 +3°C° 0 mm 1 mps 747 mmHg 82%
    19:00 +3°C° 0 mm 1 mps 746 mmHg 84%
    20:00 +1°C° 0 mm 2 mps 746 mmHg 86%
    21:00 +1°C° 0 mm 2 mps 746 mmHg 87%
    22:00 +1°C° 0 mm 2 mps 746 mmHg 88%
    23:00 +1°C° 0 mm 2 mps 746 mmHg 89%

    12 December, Thursday

    Time Temperature Precipitation Wind Pressure Humidity
    00:00 0°C° 0 mm 3 mps 745 mmHg 90%
    01:00 0°C° 0 mm 3 mps 745 mmHg 91%
    02:00 0°C° 0 mm 3 mps 745 mmHg 92%
    03:00 -1°C° 0 mm 4 mps 745 mmHg 92%
    04:00 -1°C° 0 mm 4 mps 744 mmHg 93%
    05:00 -1°C° 0 mm 5 mps 744 mmHg 93%
    06:00 0°C° 0 mm 5 mps 744 mmHg 93%
    07:00 0°C° 0 mm 5 mps 744 mmHg 93%
    08:00 0°C° 0 mm 5 mps 744 mmHg 93%
    09:00 -1°C° 0 mm 6 mps 743 mmHg 92%
    10:00 +1°C° 0 mm 6 mps 743 mmHg 90%
    11:00 +1°C° 0 mm 6 mps 743 mmHg 88%
    12:00 +1°C° 0 mm 6 mps 743 mmHg 86%
    13:00 +2°C° 0 mm 6 mps 742 mmHg 85%
    14:00 +2°C° 0 mm 6 mps 741 mmHg 83%
    15:00 +2°C° 0 mm 6 mps 741 mmHg 84%
    16:00 +1°C° 0 mm 6 mps 741 mmHg 85%
    17:00 +1°C° 0 mm 6 mps 741 mmHg 85%
    18:00 +1°C° 0 mm 6 mps 741 mmHg 86%
    19:00 +1°C° 0 mm 6 mps 741 mmHg 86%
    20:00 +1°C° 0 mm 6 mps 741 mmHg 86%
    21:00 +1°C° 0 mm 6 mps 740 mmHg 86%
    22:00 +1°C° 0 mm 6 mps 740 mmHg 86%
    23:00 0°C° 0 mm 7 mps 740 mmHg 86%
    Show more